Pleasantville, NJ

8:15 AM EST on December 03, 2016 (GMT -0500)
Atlantic City International

Weather History for KACY - July, 2014

Change the Weather History Date:

Tuesday, July 15, 2014

  Actual Average Record
Temperature  
Mean Temperature 80 °F 76 °F  
Max Temperature 89 °F 86 °F 100 °F (1995)
Min Temperature 70 °F 67 °F 55 °F (1971)
Degree Days  
Heating Degree Days 0 0  
Month to date heating degree days 0 0  
Since 1 June heating degree days 10 27  
Since 1 July heating degree days 0 0  
Cooling Degree Days 15 12  
Month to date cooling degree days 176 163  
Year to date cooling degree days 408 430  
Since 1 June cooling degree days 372 366  
Growing Degree Days 30 (Base 50)    
Moisture  
Dew Point 73 °F    
Average Humidity 82    
Maximum Humidity 100    
Minimum Humidity 63    
Precipitation  
Precipitation 0.80 in 0.13 in 3.04 in (1926)
Month to date precipitation 3.43 1.75  
Year to date precipitation 25.15 22.14  
Snow  
Snow 0.00 in 0.00 in 0.00 in (1903)
Month to date snowfall 0.0 0.0  
Since 1 June snowfall 0.0 0.0  
Since 1 July snowfall 0.0 0.0  
Snow Depth 0.00 in    
Sea Level Pressure  
Sea Level Pressure 29.79 in    
Wind  
Wind Speed 8 mph (South)    
Max Wind Speed 20 mph    
Max Gust Speed 27 mph    
Visibility 7 miles    
Events Rain    
T = Trace of Precipitation, MM = Missing Value Source: NWS Daily Summary

Daily Weather History Graph

Daily Weather History Graph

Search for Another Location

Airport or City:

Trip Planner

Search our weather history database for the weather conditions in past years. The results will help you decide how hot, cold, wet, or windy it might be!

Date:

Astronomy

Jul. 15, 2014 Rise Set
Actual Time 5:43 AM EDT 8:24 PM EDT
Civil Twilight 5:12 AM EDT 8:55 PM EDT
Nautical Twilight 4:32 AM EDT 9:35 PM EDT
Astronomical Twilight 3:48 AM EDT 10:19 PM EDT
Moon 10:32 PM EDT (7/15) 9:33 AM EDT (7/15)
Length of Visible Light 15h 43m
Length of Day
14h 40m
Waning Gibbous, 85% of the Moon is Illuminated
Jul 15
Waning Gibbous
Jul 18
Last Quarter
Jul 26
New
Aug 3
First Quarter
Aug 10
Full

Hourly Weather History & Observations

Time (EDT) Temp. Heat Index Dew Point Humidity Pressure Visibility Wind Dir Wind Speed Gust Speed Precip Events Conditions
12:54 AM 73.9 °F - 73.0 °F 97% 29.83 in 9.0 mi South 6.9 mph - 0.01 in   Clear
1:54 AM 72.0 °F - 71.1 °F 97% 29.83 in 9.0 mi SSE 4.6 mph - N/A   Clear
2:54 AM 72.0 °F - 70.0 °F 93% 29.82 in 9.0 mi South 5.8 mph - N/A   Clear
3:54 AM 72.0 °F - 71.1 °F 97% 29.81 in 10.0 mi South 8.1 mph - N/A   Clear
4:54 AM 72.0 °F - 71.1 °F 97% 29.81 in 10.0 mi SSW 4.6 mph - N/A   Clear
5:54 AM 72.0 °F - 70.0 °F 93% 29.81 in 8.0 mi SSE 5.8 mph - N/A   Partly Cloudy
6:10 AM 72.0 °F - 71.1 °F 97% 29.80 in 5.0 mi SSE 8.1 mph - N/A   Scattered Clouds
6:20 AM 72.0 °F - 71.1 °F 97% 29.79 in 3.0 mi SSE 6.9 mph - N/A   Mostly Cloudy
6:39 AM 73.0 °F - 72.0 °F 96% 29.80 in 2.5 mi South 5.8 mph - N/A   Overcast
6:54 AM 72.0 °F - 72.0 °F 100% 29.80 in 1.2 mi SSE 11.5 mph - N/A   Overcast
7:05 AM 72.0 °F - 72.0 °F 100% 29.80 in 2.0 mi South 9.2 mph - N/A   Overcast
7:15 AM 73.0 °F - 72.0 °F 96% 29.80 in 4.0 mi South 9.2 mph - N/A   Overcast
7:54 AM 75.0 °F - 73.9 °F 96% 29.80 in 6.0 mi South 6.9 mph - N/A   Mostly Cloudy
8:12 AM 75.9 °F - 73.9 °F 94% 29.79 in 7.0 mi South 8.1 mph - N/A   Scattered Clouds
8:30 AM 77.0 °F - 73.9 °F 90% 29.80 in 7.0 mi South 8.1 mph - N/A   Mostly Cloudy
8:54 AM 78.1 °F - 73.9 °F 87% 29.81 in 7.0 mi SSW 8.1 mph - N/A   Mostly Cloudy
9:54 AM 81.0 °F 86.7 °F 75.0 °F 82% 29.80 in 8.0 mi SSW 9.2 mph - N/A   Mostly Cloudy
10:38 AM 82.0 °F 88.6 °F 75.0 °F 79% 29.79 in 9.0 mi South 10.4 mph - N/A   Mostly Cloudy
10:54 AM 82.9 °F 90.2 °F 75.0 °F 77% 29.79 in 9.0 mi SSW 6.9 mph - N/A   Mostly Cloudy
11:41 AM 84.9 °F 93.3 °F 75.0 °F 72% 29.79 in 9.0 mi South 8.1 mph - N/A   Scattered Clouds
11:54 AM 84.9 °F 94.1 °F 75.9 °F 74% 29.79 in 10.0 mi South 9.2 mph - N/A   Mostly Cloudy
12:02 PM 84.9 °F 94.1 °F 75.9 °F 74% 29.79 in 10.0 mi SSW 6.9 mph - N/A   Mostly Cloudy
12:54 PM 88.0 °F 96.5 °F 73.9 °F 63% 29.79 in 10.0 mi SW 10.4 mph - N/A   Partly Cloudy
1:54 PM 88.0 °F 98.5 °F 75.9 °F 67% 29.77 in 9.0 mi South 10.4 mph - N/A   Scattered Clouds
2:54 PM 84.9 °F 93.3 °F 75.0 °F 72% 29.76 in 9.0 mi South 11.5 mph 20.7 mph N/A   Clear
3:54 PM 84.0 °F 91.9 °F 75.0 °F 74% 29.73 in 9.0 mi South 12.7 mph - N/A   Clear
4:54 PM 81.0 °F 85.8 °F 73.0 °F 77% 29.72 in 9.0 mi South 12.7 mph - N/A   Clear
5:54 PM 78.1 °F - 73.0 °F 84% 29.75 in 7.0 mi SSW 13.8 mph 23.0 mph N/A   Mostly Cloudy
6:09 PM 78.1 °F - 73.0 °F 84% 29.77 in 7.0 mi SSW 11.5 mph 20.7 mph N/A   Mostly Cloudy
6:25 PM 77.0 °F - 72.0 °F 84% 29.79 in 9.0 mi NW 13.8 mph 20.7 mph N/A   Overcast
6:40 PM 75.0 °F - 71.1 °F 87% 29.82 in 2.0 mi West 18.4 mph 26.5 mph 0.00 in Rain Light Rain
6:44 PM 73.0 °F - 71.1 °F 93% 29.81 in 0.8 mi West 11.5 mph 26.5 mph 0.22 in Rain Heavy Rain
6:54 PM 73.0 °F - 71.1 °F 93% 29.80 in 1.5 mi NW 5.8 mph - 0.46 in Rain Heavy Rain
7:00 PM 73.0 °F - 72.0 °F 96% 29.80 in 2.0 mi NNW 4.6 mph - 0.05 in Rain Heavy Rain
7:12 PM 72.0 °F - 71.1 °F 97% 29.79 in 8.0 mi WNW 9.2 mph - 0.07 in Rain Light Rain
7:23 PM 72.0 °F - 71.1 °F 97% 29.81 in 4.0 mi SW 5.8 mph - 0.08 in Rain Rain
7:31 PM 72.0 °F - 71.1 °F 97% 29.80 in 2.0 mi SSW 4.6 mph - 0.14 in Rain Heavy Rain
7:40 PM 72.0 °F - 72.0 °F 100% 29.80 in 7.0 mi SSW 3.5 mph - 0.15 in Rain Light Rain
7:54 PM 72.0 °F - 72.0 °F 100% 29.80 in 9.0 mi South 3.5 mph - 0.16 in Rain Light Rain
8:54 PM 72.0 °F - 71.1 °F 97% 29.79 in 4.0 mi ESE 4.6 mph - 0.17 in Rain Rain
9:28 PM 72.0 °F - 71.1 °F 97% 29.79 in 10.0 mi South 4.6 mph - 0.01 in   Partly Cloudy
9:54 PM 72.0 °F - 71.1 °F 97% 29.79 in 10.0 mi SE 4.6 mph - 0.01 in   Clear
10:01 PM 72.0 °F - 71.1 °F 97% 29.79 in 10.0 mi SE 4.6 mph - N/A   Partly Cloudy
10:54 PM 72.0 °F - 71.1 °F 97% 29.80 in 10.0 mi South 5.8 mph - N/A   Clear
11:54 PM 70.0 °F - 70.0 °F 100% 29.80 in 10.0 mi South 5.8 mph - N/A   Mostly Cloudy